[[{"header":{"parameterUnit":"m.s-1","parameterCategory":1,"la1":30.2991,"la2":30.254,"lo1":-89.0895,"lo2":-89.0444,"dy":0.0017,"dx":0.0017,"nx":28,"ny":28,"refTime":"2024-02-02T09:00:00:Z","depth":0,"parameterNumber":2,"parameterNumberName":"U-component_of_WINDS"},"data":[0,0,0,0,0,0,0,0,0,0,0,0,0,0,0,0,0,0,0,0,0,0,0,0,0,0,0,0,0,0,0,0,0,0,0,0,0,0,0,0,0,0,0,0,0,0,0,0,0,0,0,0,0,0,0,0,0,0,0.2271,0.2271,0,0.2315,0.2316,0.2316,0.2338,0.2337,0.2337,0.2337,0.2381,0.2382,0.2384,0,0,0,0,0,0,0,0,0,0,0,0,0,0.2201,0.2203,0.227,0.2271,0.2272,0.2315,0.2316,0.2316,0.2338,0.2337,0.2337,0.2337,0.2381,0.2382,0.2384,0,0,0,0,0,0,0,0,0,0,0,0,0,0.2237,0.2203,0.227,0.2287,0.2289,0.2315,0.2316,0.2317,0.2338,0.2337,0.2337,0.2337,0.238,0.2382,0.2384,0.2395,0,0,0.2389,0.239,0,0,0,0,0,0,0,0,0.2235,0.224,0.2284,0.2286,0.2289,0.2321,0.2308,0.2343,0.2338,0.2319,0.2337,0.2337,0.2361,0.2364,0.2373,0.2398,0.2399,0.239,0.2391,0.2391,0.2392,0,0,0,0,0,0,0,0.2233,0.2238,0.2288,0.2285,0.2288,0.2292,0.2297,0.2314,0.234,0.2321,0.2322,0.2328,0.2362,0.2371,0.2374,0.24,0.2389,0.2391,0.2392,0.2393,0.2437,0.2437,0,0,0,0,0,0,0.2228,0.2236,0.2287,0.229,0.2261,0.2294,0.2299,0.231,0.234,0.2344,0.2328,0.2328,0.2368,0.2372,0.2376,0.2391,0.2391,0.2393,0.2394,0.2437,0.2437,0.2437,0,0,0,0,0,0,0.2226,0.2232,0.2285,0.2263,0.227,0.2295,0.2307,0.2311,0.232,0.2345,0.2349,0.2332,0.2368,0.2373,0.2391,0.2393,0.2394,0.2395,0.2436,0.2437,0.2437,0.2423,0,0,0,0,0,0,0.2224,0.2231,0.2236,0.2263,0.2271,0.23,0.2307,0.2312,0.2324,0.2325,0.235,0.2354,0.2369,0.2388,0.2392,0.2396,0.2397,0.2436,0.2437,0.2437,0.2423,0.2422,0.2422,0,0,0,0,0,0.2221,0.223,0.2236,0.2243,0.2278,0.23,0.2304,0.2321,0.2324,0.2329,0.2344,0.2353,0.2392,0.2389,0.2395,0.2399,0.2436,0.2436,0.2437,0.2423,0.2422,0.2422,0,0,0,0,0,0,0.2202,0.2234,0.2241,0.2259,0.2277,0.2303,0.231,0.232,0.2336,0.2337,0.2357,0.2362,0.2378,0.239,0.2386,0.2411,0.2415,0.2416,0.2403,0.2402,0.2402,0.2398,0.2398,0,0,0,0,0,0.22,0.2215,0.2242,0.2255,0.2264,0.2285,0.2295,0.2307,0.2326,0.2333,0.235,0.2367,0.2383,0.2393,0.241,0.2425,0.243,0.243,0.2429,0.2429,0.2429,0.2439,0.2439,0.2438,0.2438,0.2438,0,0,0.2195,0.2215,0.2223,0.2252,0.2267,0.2282,0.2291,0.2307,0.2318,0.2335,0.2353,0.2366,0.2386,0.2403,0.2411,0.2413,0.2431,0.2429,0.2428,0.243,0.2439,0.2439,0.2439,0.2438,0.2438,0.2438,0,0,0.2195,0.2211,0.2224,0.2239,0.2262,0.2277,0.228,0.2305,0.2315,0.2333,0.2346,0.236,0.2387,0.2401,0.2412,0.2417,0.2426,0.2422,0.2419,0.2427,0.2427,0.2428,0.243,0.243,0.2423,0.2423,0.2423,0,0.2187,0.2211,0.2229,0.2244,0.2256,0.2273,0.2286,0.23,0.2326,0.2334,0.2336,0.2371,0.2386,0.2407,0.2408,0.2416,0.242,0.2419,0.2426,0.2426,0.2427,0.2429,0.243,0.2422,0.2422,0.2422,0.2422,0,0.2199,0.2215,0.2223,0.2249,0.2262,0.2276,0.2296,0.2307,0.2317,0.2331,0.2349,0.2368,0.2389,0.2394,0.2404,0.2416,0.2417,0.2422,0.2426,0.2426,0.2428,0.2429,0.2421,0.2421,0.2422,0.2422,0,0,0.2187,0.2224,0.2227,0.2239,0.2266,0.2279,0.2293,0.2314,0.2322,0.234,0.2353,0.2376,0.2381,0.2394,0.2405,0.2413,0.2416,0.2418,0.2418,0.2417,0.243,0.2426,0.2427,0.2422,0.2423,0.2423,0.2429,0,0.2191,0.2218,0.2236,0.2256,0.2271,0.2288,0.23,0.2318,0.2331,0.2346,0.2361,0.2377,0.2383,0.239,0.2398,0.2414,0.2419,0.2414,0.2434,0.2434,0.2428,0.2428,0.2423,0.2428,0.243,0.243,0.243,0,0.2198,0.2217,0.2239,0.2264,0.2271,0.2283,0.2303,0.2317,0.2337,0.2346,0.236,0.2372,0.2388,0.2391,0.2412,0.2408,0.2417,0.2426,0.2427,0.2429,0.2432,0.243,0.243,0.243,0.2432,0.2431,0.2431,0,0.2188,0.2218,0.2235,0.2245,0.2275,0.2283,0.2296,0.2316,0.2327,0.2345,0.2353,0.2372,0.2382,0.2396,0.2413,0.2413,0.2433,0.2437,0.2441,0.244,0.2444,0.2443,0.2445,0.2449,0.2449,0.2449,0.2449,0,0.219,0.2203,0.2231,0.2242,0.2257,0.2276,0.229,0.2304,0.2322,0.2335,0.235,0.2362,0.2384,0.2398,0.2411,0.2427,0.2432,0.2439,0.2443,0.2438,0.2437,0.2444,0.2444,0.245,0.245,0.245,0.245,0,0.218,0.22,0.222,0.2247,0.2254,0.2264,0.2287,0.2298,0.2312,0.2329,0.2334,0.2357,0.2374,0.2393,0.2416,0.2425,0.2441,0.2445,0.2434,0.2436,0.2439,0.2438,0.2445,0.2447,0.245,0.245,0.245,0,0.218,0.2191,0.222,0.223,0.2243,0.2259,0.2271,0.2291,0.2303,0.2327,0.2334,0.2354,0.237,0.2398,0.2416,0.2434,0.2439,0.244,0.2442,0.2437,0.2439,0.2439,0.244,0.2439,0.2439,0.2439,0.2439,0,0.2178,0.2188,0.2205,0.2226,0.224,0.2257,0.2275,0.2282,0.2305,0.2318,0.2337,0.2349,0.2374,0.2393,0.2414,0.2426,0.2436,0.2439,0.244,0.2436,0.2429,0.2433,0.2432,0.2438,0.2438,0.2438,0.2438,0.2438,0.2174,0.2184,0.2206,0.2225,0.224,0.2257,0.2268,0.2285,0.2301,0.2323,0.2334,0.2353,0.2373,0.2402,0.2414,0.2429,0.2432,0.2434,0.2435,0.2435,0.2434,0.2427,0.2432,0.2433,0.2433,0.2433,0.2433,0,0.2173,0.2188,0.2205,0.223,0.2244,0.2254,0.2274,0.2285,0.2302,0.232,0.2336,0.2358,0.2376,0.2396,0.2416,0.2424,0.2429,0.2428,0.2428,0.243,0.243,0.2427,0.2424,0.2424,0.2424,0.2424,0.2424,0.2424,0.2174,0.2192,0.2204,0.2229,0.2244,0.2264,0.2274,0.2289,0.2304,0.2328,0.2344,0.2357,0.2376,0.2397,0.2414,0.2419,0.2426,0.2423,0.243,0.243,0.243,0.2431,0.2428,0.2425,0.2425,0.2429,0.2429,0.2429]},{"header":{"parameterUnit":"m.s-1","parameterCategory":1,"la1":30.2991,"la2":30.254,"lo1":-89.0895,"lo2":-89.0444,"dy":0.0017,"dx":0.0017,"nx":28,"ny":28,"refTime":"2024-02-02T09:00:00:Z","depth":0,"parameterNumber":3,"parameterNumberName":"V-component_of_WINDS"},"data":[0,0,0,0,0,0,0,0,0,0,0,0,0,0,0,0,0,0,0,0,0,0,0,0,0,0,0,0,0,0,0,0,0,0,0,0,0,0,0,0,0,0,0,0,0,0,0,0,0,0,0,0,0,0,0,0,0,0,-0.3865,-0.3865,0,-0.3825,-0.3825,-0.3824,-0.3833,-0.3834,-0.3834,-0.3835,-0.3794,-0.3792,-0.3791,0,0,0,0,0,0,0,0,0,0,0,0,0,-0.3949,-0.3948,-0.3865,-0.3865,-0.3864,-0.3825,-0.3825,-0.3824,-0.3833,-0.3834,-0.3834,-0.3835,-0.3795,-0.3793,-0.379,0,0,0,0,0,0,0,0,0,0,0,0,0,-0.3911,-0.3947,-0.3865,-0.3864,-0.3863,-0.3825,-0.3825,-0.3824,-0.3832,-0.3834,-0.3835,-0.3836,-0.3795,-0.3793,-0.379,-0.3751,0,0,-0.3782,-0.3781,0,0,0,0,0,0,0,0,-0.3913,-0.3908,-0.3864,-0.3864,-0.3863,-0.3835,-0.3839,-0.3799,-0.3832,-0.3844,-0.3835,-0.3836,-0.3807,-0.3803,-0.3793,-0.3749,-0.3747,-0.3782,-0.378,-0.3779,-0.3778,0,0,0,0,0,0,0,-0.3916,-0.391,-0.3849,-0.3864,-0.3863,-0.3865,-0.3861,-0.3832,-0.382,-0.3843,-0.3844,-0.3839,-0.3807,-0.3796,-0.3792,-0.3747,-0.3782,-0.3779,-0.3778,-0.3777,-0.3669,-0.3668,0,0,0,0,0,0,-0.3919,-0.3912,-0.385,-0.3848,-0.3891,-0.3863,-0.3858,-0.3843,-0.382,-0.3818,-0.3838,-0.3839,-0.38,-0.3796,-0.3791,-0.3744,-0.3779,-0.3776,-0.3775,-0.367,-0.3669,-0.3667,0,0,0,0,0,0,-0.3921,-0.3914,-0.3852,-0.388,-0.3872,-0.386,-0.3843,-0.3842,-0.3831,-0.3816,-0.3814,-0.3829,-0.3801,-0.3795,-0.3761,-0.3742,-0.3775,-0.3773,-0.3672,-0.367,-0.3668,-0.3649,0,0,0,0,0,0,-0.3923,-0.3914,-0.3899,-0.388,-0.3871,-0.3823,-0.3842,-0.384,-0.3826,-0.3828,-0.3807,-0.3805,-0.3801,-0.3765,-0.3758,-0.3739,-0.3771,-0.3673,-0.3671,-0.3669,-0.3651,-0.3647,-0.3643,0,0,0,0,0,-0.3926,-0.3895,-0.3898,-0.3891,-0.3852,-0.3821,-0.3816,-0.3813,-0.3825,-0.3809,-0.38,-0.3806,-0.3746,-0.3761,-0.3754,-0.3734,-0.3674,-0.3672,-0.3669,-0.3653,-0.3647,-0.3643,0,0,0,0,0,0,-0.3913,-0.3893,-0.3896,-0.3858,-0.3841,-0.3823,-0.3804,-0.3807,-0.3787,-0.3789,-0.3785,-0.3781,-0.3746,-0.3737,-0.3755,-0.3695,-0.3712,-0.3707,-0.3702,-0.3697,-0.3693,-0.3696,-0.3768,0,0,0,0,0,-0.3905,-0.3882,-0.3866,-0.3834,-0.3826,-0.3816,-0.3803,-0.3801,-0.3784,-0.3777,-0.3765,-0.3748,-0.3726,-0.3711,-0.3689,-0.365,-0.3646,-0.3633,-0.3629,-0.3625,-0.3621,-0.36,-0.3594,-0.3658,-0.3658,-0.3658,0,0,-0.389,-0.3876,-0.3862,-0.3831,-0.3818,-0.3794,-0.381,-0.3784,-0.3767,-0.3773,-0.374,-0.3731,-0.3712,-0.3676,-0.3659,-0.3667,-0.3603,-0.3622,-0.3619,-0.3617,-0.3596,-0.359,-0.3585,-0.3656,-0.3657,-0.3657,0,0,-0.3849,-0.3836,-0.3808,-0.3795,-0.3775,-0.3769,-0.3762,-0.3744,-0.3738,-0.3705,-0.371,-0.3689,-0.365,-0.3636,-0.3624,-0.3579,-0.3583,-0.3572,-0.355,-0.3529,-0.3524,-0.3519,-0.3503,-0.3497,-0.3568,-0.3568,-0.3568,0,-0.3832,-0.3796,-0.3793,-0.3767,-0.3753,-0.3758,-0.373,-0.3717,-0.3691,-0.3682,-0.3691,-0.3643,-0.363,-0.3591,-0.3579,-0.357,-0.3562,-0.3574,-0.3525,-0.352,-0.3516,-0.35,-0.3494,-0.3567,-0.3567,-0.3567,-0.3567,0,-0.3776,-0.3751,-0.3731,-0.3706,-0.369,-0.3663,-0.3656,-0.364,-0.364,-0.3633,-0.36,-0.3585,-0.3561,-0.3552,-0.3551,-0.3512,-0.3517,-0.3526,-0.3542,-0.3508,-0.3494,-0.3488,-0.3565,-0.3565,-0.3566,-0.3566,0,0,-0.3725,-0.3699,-0.3692,-0.368,-0.3659,-0.364,-0.3613,-0.3589,-0.3576,-0.3558,-0.3536,-0.3503,-0.3511,-0.3497,-0.3495,-0.3477,-0.3442,-0.3488,-0.3487,-0.3479,-0.3397,-0.3391,-0.3384,-0.3445,-0.3444,-0.3443,-0.3399,0,-0.3682,-0.3634,-0.3631,-0.3588,-0.3565,-0.357,-0.3547,-0.3531,-0.3524,-0.3504,-0.3496,-0.3473,-0.3485,-0.3477,-0.3459,-0.345,-0.3425,-0.3453,-0.3424,-0.3423,-0.3428,-0.3376,-0.3369,-0.3328,-0.3393,-0.3392,-0.3391,0,-0.3625,-0.3606,-0.356,-0.3543,-0.3533,-0.3512,-0.349,-0.3471,-0.3453,-0.345,-0.3434,-0.3436,-0.3408,-0.3426,-0.3388,-0.3408,-0.3395,-0.3389,-0.3388,-0.3384,-0.3404,-0.3371,-0.3315,-0.3308,-0.3382,-0.3383,-0.3383,0,-0.3592,-0.3555,-0.3523,-0.3513,-0.3492,-0.3477,-0.3467,-0.3451,-0.3437,-0.3418,-0.3409,-0.3387,-0.3375,-0.3358,-0.3353,-0.3367,-0.3315,-0.3333,-0.3311,-0.3311,-0.33,-0.33,-0.324,-0.3293,-0.3293,-0.3293,-0.3293,0,-0.3544,-0.3516,-0.3507,-0.3488,-0.3457,-0.3453,-0.3423,-0.3414,-0.34,-0.3379,-0.3382,-0.3362,-0.3357,-0.3336,-0.3333,-0.3302,-0.3296,-0.3293,-0.3292,-0.3292,-0.3292,-0.3284,-0.3286,-0.3291,-0.3292,-0.3292,-0.3292,0,-0.3501,-0.3494,-0.346,-0.3443,-0.3438,-0.3415,-0.3401,-0.3382,-0.3376,-0.3349,-0.3342,-0.3332,-0.3308,-0.3302,-0.3273,-0.327,-0.3234,-0.3236,-0.324,-0.324,-0.3218,-0.322,-0.315,-0.314,-0.3199,-0.3199,-0.3198,0,-0.347,-0.3449,-0.343,-0.3416,-0.3406,-0.3383,-0.3369,-0.3365,-0.335,-0.3329,-0.3313,-0.3289,-0.327,-0.3231,-0.3221,-0.3199,-0.3201,-0.3177,-0.3197,-0.3198,-0.32,-0.3201,-0.3199,-0.3173,-0.3173,-0.3172,-0.3172,0,-0.3417,-0.3415,-0.3394,-0.3372,-0.3355,-0.3338,-0.3321,-0.331,-0.3304,-0.3287,-0.3262,-0.3247,-0.3218,-0.3194,-0.3172,-0.3162,-0.3166,-0.3166,-0.316,-0.3159,-0.3162,-0.316,-0.3229,-0.3167,-0.3168,-0.3168,-0.3168,-0.3169,-0.3379,-0.336,-0.3344,-0.3321,-0.3308,-0.3292,-0.3274,-0.3265,-0.3245,-0.322,-0.322,-0.3193,-0.3177,-0.3147,-0.3136,-0.3115,-0.3122,-0.3113,-0.3111,-0.3109,-0.3107,-0.3166,-0.3112,-0.3112,-0.3112,-0.3112,-0.3112,0,-0.3325,-0.3315,-0.3294,-0.3271,-0.3253,-0.3258,-0.324,-0.3225,-0.3201,-0.3185,-0.3166,-0.3138,-0.3115,-0.3104,-0.3082,-0.3067,-0.3068,-0.3061,-0.3062,-0.306,-0.3102,-0.3109,-0.3061,-0.3061,-0.3061,-0.3061,-0.3061,-0.3061,-0.3295,-0.3264,-0.326,-0.3222,-0.3212,-0.3186,-0.3175,-0.3161,-0.3148,-0.3117,-0.3098,-0.3091,-0.3077,-0.3054,-0.3033,-0.303,-0.3022,-0.3014,-0.3012,-0.3051,-0.3057,-0.3062,-0.3069,-0.3012,-0.3012,-0.2971,-0.2971,-0.2971]}]]